Погода в Трубчевске

Погода в Трубчевске : погода сейчас, прогноз погоды и архив. Всё, что Вы хотите узнать о погоде в Трубчевске!

Хотите узнать прогноз погоды в Трубчевске? Тогда Вам сюда: Погода в Трубчевске

Поиск расширенной информации на нашем сайте:

Полезная информация: Спорт товары смотрите здесь.

Другие новости

Новости СМИ2

Главная страница сайта

Новости сайта

02.10.2013

Напоминаем, что на нашем новом сайте вы можете получить высокодетализированные прогнозы погоды по пунктам России, СНГ и мира (включающие важные для авиации метеовеличины, такие как направление и скорость ветра, видимость, явления погоды, количество и форма облачности, нижняя и верхняя граница облачности), а также ознакомиться с разнообразными материалами по авиационной метеорологии и подборкой полезных ссылок на эту тему.

Сайт Метеоцентр.Азия посвящён разработке технологий оптимизации авиаметеорологического обслуживания, включая проектирование и перспективное создание нескольких автоматизированных авиаметеорологических систем:
- система выпуска высокодетальных прогностических карт явлений погоды для нижнего воздушного пространства по России и ближнему зарубежью;
- система верификации прогнозов TAF (выпускаемых синоптиками официальных АМСГ РФ и ближнего зарубежья) и AUTOTAF (выпускаемых сайтом Метеоцентр.Азия) - выявление ошибок, онлайн-сопоставление с фактической погодой METAR, автоматическое внесение коррективов в прогнозы при резком отклонении фактической погоды от прогноза, подсчёт оправдываемости прогнозов по элементам и в целом;
- система обработки, анализа и отображения авиаметеорологической информации для применения провайдерами метеорологической информации.

Рекомендуем: Оконный супермаркет готовые окна металлопластиковые www.prosvet-okna.ru.

Погода в Трубчевске - сегодня

Время (UTC), дата Ветер
(°,м/с) 
Видим.   Явления Облачность Т
(°С)
Тd
(°С)
f(%) Тe
(°С)
Pmin
(гПа)
dP
(гПа)
Po
(мм)
O2
(г/м3)
Тmin Tmax R s Состояние
почвы
00 24.03.17 010 (С) 12000 м    ясно 
-0.2 -3.3 80 1025.5  -0.6  752  304           
03 24.03.17 070 (В) 8000 м  дымка  3/0 верхняя 
[Ci fib]
-0.8 -2.6 88 1023.6  -1.9  751  304  -1.1         
06 24.03.17 020 (С) 11000 м    10/0 средняя 
[Ac As]
+1.7 -0.8 83 +2  1021.9  -1.5  750  300  -1.1         
09 24.03.17 080 (В) 8000 м  слаб. ливневой дождь  10/10 450 м кучево-дожд. 
[Cb cap]
+2.1 +0.2 87 1018.7  -3.1  747  299           
12 24.03.17 030 (СВ) 5000 м  дымка{ливн. осадки}  10/10 480 м кучево-дожд. 
[Cb cap]
+2.7 +1.9 94 +2  1016.2  -2.4  746  297           
15 24.03.17 340 (С) 7000 м  дымка  10/10 480 м кучево-дожд. 
[Cb cap]
+3.3 +1.8 90 +3  1016.3  0.2  746  297         
18 24.03.17 250 (З) 7000 м  дымка  10/10 480 м кучево-дожд. 
[Cb cap]
+2.6 +1.3 91 +3  1017.3  0.8  746  298    +3.5     
21 24.03.17 310 (СЗ) 7000 м  дымка  ясно 
+1.3 -0.1 90 +1  1019.1  1.6  748  300           
00 25.03.17 340 (С) 15000 м    ясно 
+0.8 -3.1 75 -2  1019.8  0.7  748  301           
03 25.03.17 320 (СЗ) 15000 м    ясно 
-0.9 -4.8 75 -3  1020.6  0.7  749  303  -1.1         
06 25.03.17 330 (СЗ) 20000 м    ясно 
-0.1 -6 64 -2  1021.3  0.8  749  303  -1.1         
09 25.03.17 330 (СЗ) 30000 м    1/0 верхняя 
[Ci fib]
+3.1 -10.3 37 +2  1020.9  -0.2  749  299           
12 25.03.17 260 (З) 35000 м    3/0 верхняя 
[Ci fib]
+5.3 -11 30 +4  1018.4  -2.3  747  296           
15 25.03.17 280 (З) 35000 м    4/0 верхняя 
[Ci fib]
+5.1 -10.8 31 +4  1016.3  -2  746  296           
18 25.03.17 250 (З) 23000 м    4/0 верхняя 
[Ci fib]
+1.1 -6 59 +2  1015.9  -0.6  745  300    +5.5       
21 25.03.17 230 (ЮЗ) 17000 м    ясно 
-0.8 -5.4 71 1016.1  -0.1  745  302           
00 26.03.17 350 (С) 18000 м    ясно 
-0.4 -5.3 69 1016.2  0.2  745  301           
03 26.03.17 320 (СЗ) 11000 м    4/0 верхняя 
[Ci fib]
+1 -3.6 71 +2  1016.7  0.3  746  300  -1.2         
06 26.03.17 330 (СЗ) 14000 м    4/0 верхняя 
[Ci fib]
+0.1 -3.6 76 +1  1018.1  1.5  747  301  -1.7         
09 26.03.17 300 (СЗ) 35000 м    5/5 1000 м 
[Cu hum]
+5.3 -9.3 34 +6  1018.3  0.6  747  296           
12 26.03.17 350 (С) 35000 м    8/8 500 м кучево-дожд. 
[Cb cap]
+6.2 -10.2 30 +6  1017.6  -0.6  747  295           
15 26.03.17 310 (СЗ) 30000 м    8/5 300 м кучево-дожд., средняя 
[Cb cap|Ac trans]
+5.1 -7.2 41 +4  1017.1  -0.6  746  296           
18 26.03.17 270 (З) 27000 м    4/0 средняя 
[Ac trans]
+2.3 -7.2 49 +1  1016.5  -0.7  746  299    +6.5       
21 26.03.17 250 (З) 22000 м    8/0 средняя 
[Ac trans]
+1.8 -5.1 60 1014  -2.5  744  298           
00 27.03.17 250 (З) 4{10}  16000 м    8/8 500 м кучево-дожд. 
[Cb cap]
+1.7 -2.7 73 1009  -4.9  740  297           
Время (UTC), дата Ветер
(°,м/с) 
Видим.   Явления Облачность Т
(°С)
Тd
(°С)
f(%) Тe
(°С)
Pmin
(гПа)
dP
(гПа)
Po
(мм)
O2
(г/м3)
Тmin Tmax R s Состояние
почвы

Для получения пояснительной информации подведите курсор к названию столбца.

ПОГОДА в Трубчевске - архив

Всё, что Вы хотите узнать о погоде в Трубчевске - удобно и подробно!

Выберите нужную дату (начиная с 1 января 2015* года) и нажмите кнопку "Найти".
Будут отображены архивные сводки погоды по пункту Трубчевск, начиная с указанной даты.


Отображать данные в формате CSV (для использования в таблицах Excel)


Внимание! Наш архив погоды предназначен исключительно для личного некоммерческого использования в познавательных целях. Если Вам необходимы официальные справки о состоянии погоды (для производственных, юридических, коммерческих и т.п. целей), обращайтесь в органы Росгидромета.

*Примечание: данная дата относится к архиву по метеостанциям СССР (Россия, СНГ, Балтия).
Архив по метеостанциям Зарубежной Европы и Азии (кроме Китая) хранится 10 дней, по другим регионам земного шара (Китай, Африка, Америка, Австралия, Океания) - 1 день.

Трубчевск - район местоположения метеостанции


Название, широта, долгота, высота метеостанции:
Трубчевск 52.6°ш. 33.8°д. 178 м над ур. моря [Российская Федерация]

Дополнительная информация

В oтличие oт бoльшинства пoгoдных сайтoв мы публикуем пoдрoбную метеoинфoрмацию в детальнoм прoфессиoнальнoм фoрмате.

Характеристики температуры и влажнoсти вoздуха измеряются на высoте 2 м в тени вдали oт зданий и деревьев.
Скoрoсть ветра измеряется на высoте 10 м (на урoвне рoста челoвека скoрoсть ветра ниже в 1.5-2 раза). Если метеoстанция нахoдится в гoрoде или в лесу, тo скoрoсть ветра занижена на 2-4 м/с пo сравнению с oткрытым местoм. Скoрoсть ветра над акватoриями крупных рек и oзёр, а также на вершинах хoлмoв на 2-5 м/с выше, чем в oбычных услoвиях.
Атмoсфернoе давление в разных тoчках местнoсти мoжет значительнo oтличаться oт давления на метеoстанции, в зависимoсти oт услoвий рельефа (при пoдъёме на 10 м давление пoнижается примернo на 1 мм рт.ст.).